Location: Hylvaty SDH
(49.9612°N, 16.4057°E)
Time: 12:41:32
(UTC+01:00)

Tiros 1 - Pass Details

Date: 07 October 2020
Orbit: 630 x 663 km, 48.4° (Epoch: 28 October)

Event Time Altitude Azimuth Distance (km) Brightness Sun altitude
Rises 17:27:24 0° 282° (WNW) 2,962 11.7 7.3°
Reaches altitude 10° 17:29:53 10° 273° (W) 2,056 11.4 6.9°
Maximum altitude 17:34:10 35° 209° (SSW) 1,065 9.0 6.2°
Drops below altitude 10° 17:38:28 10° 144° (SE) 2,065 9.6 5.6°
Sets 17:40:58 0° 135° (SE) 2,978 10.3 5.2°
